Wind_Speed
16 16 15 15 15 15 14 14 13 13 13 13 12 12 12 12 11 11 10 8 8 9 9 8 8 8 8 8 9 9 9 9 10 11 11 9 8 8 8 8 9 11 13 14 16 17 18 19 19 18 16 15 12 12 11 9 8 12 14 11 10 11 10 10 10 10 8 3 4 5 5 7 11 12 12 12 10 9 10 12 14 16 15 14 14 19 24 25
17 17 17 16 16 15 14 13 12 12 12 12 12 12 12 12 12 12 10 9 9 9 9 8 8 8 8 8 9 8 8 9 10 11 11 11 10 9 8 8 9 9 10 12 15 16 17 18 19 18 17 15 14 13 11 9 9 11 13 10 9 8 9 9 8 9 10 3 2 2 4 7 9 9 10 11 10 11 12 12 16 18 17 16 18 22 25 24
17 18 18 17 16 15 14 13 11 10 10 10 11 11 12 12 12 12 11 10 9 9 9 8 8 8 7 8 8 8 8 9 10 10 12 12 11 10 9 8 9 9 10 13 17 17 18 19 19 18 17 16 15 14 12 11 12 12 12 11 10 8 8 9 7 8 9 5 1 1 3 7 8 8 8 8 11 12 11 9 11 17 19 19 21 25 26 24
17 18 18 18 16 15 13 12 11 9 8 8 9 10 10 11 11 12 11 10 9 9 9 8 8 7 7 7 7 7 8 8 9 10 11 12 12 12 10 9 10 10 10 13 18 21 22 22 21 19 18 18 17 16 14 13 14 13 12 12 11 9 8 8 8 8 8 7 3 2 2 4 7 7 6 7 11 10 9 7 3 9 18 18 21 26 26 25
17 18 18 17 16 15 13 12 11 10 8 8 8 8 9 9 10 10 10 9 9 9 8 8 7 7 7 8 7 6 7 8 9 10 10 12 13 13 12 11 11 11 11 12 17 21 22 21 22 21 20 20 19 17 14 14 14 13 13 12 10 8 6 5 6 7 6 6 5 1 2 2 6 7 5 6 7 4 4 6 2 8 15 14 19 24 25 26
17 17 18 17 16 15 14 12 11 11 10 9 8 8 8 8 8 9 9 8 8 7 7 7 6 6 7 8 8 6 7 8 8 10 10 11 13 14 14 14 13 12 11 12 14 18 20 20 22 23 23 21 19 17 15 14 14 12 12 11 7 5 4 3 2 4 4 5 5 1 1 2 5 6 5 6 5 3 4 6 5 10 14 13 17 21 25 25
16 17 17 16 16 15 14 13 12 12 11 10 10 9 8 7 7 8 8 8 7 7 6 6 5 5 6 7 8 6 7 8 8 9 10 11 13 15 15 15 15 12 11 12 12 14 18 20 21 21 23 22 19 18 16 15 15 12 10 8 5 3 3 2 2 2 2 3 3 2 2 3 4 4 6 7 6 5 7 8 7 11 13 14 16 19 23 24
16 16 16 16 15 15 14 14 13 13 12 12 11 10 9 8 8 7 7 7 6 6 5 5 5 5 5 6 8 7 7 8 8 8 9 10 12 15 15 15 15 13 12 12 10 11 15 17 18 20 23 21 20 20 17 15 15 13 9 5 2 3 3 5 5 4 2 2 1 2 2 4 4 4 7 7 7 8 9 10 10 12 13 14 16 18 22 24
16 16 16 15 15 14 14 14 14 13 13 13 12 11 10 10 9 8 7 6 6 6 5 5 4 4 4 5 7 7 7 8 9 10 11 10 11 13 15 15 14 14 14 13 12 11 11 15 16 17 20 20 21 22 19 16 14 11 5 3 7 5 4 7 8 7 6 5 3 1 1 3 5 6 8 9 9 9 10 11 11 12 14 15 17 18 21 22
16 16 15 15 15 14 14 14 14 13 13 13 13 12 11 11 10 9 9 8 7 6 6 5 4 4 4 5 6 6 7 8 10 11 13 13 12 12 13 14 15 15 16 15 13 8 8 13 15 15 20 22 22 21 18 16 12 8 8 10 11 7 4 6 7 9 11 9 4 2 2 2 5 6 7 8 9 9 10 11 12 13 13 14 16 18 20 21
16 15 15 15 15 15 15 14 14 14 13 14 14 14 13 12 11 10 10 9 8 7 6 5 4 4 4 5 5 4 6 9 10 11 11 14 14 13 12 13 15 16 16 16 12 8 10 15 17 18 20 21 21 19 16 14 10 10 11 12 12 9 8 8 7 9 14 14 8 5 5 5 6 7 6 4 6 9 10 11 12 13 13 14 16 18 20 21
16 15 14 15 15 16 15 15 15 14 14 14 14 15 14 14 12 11 11 10 10 9 7 6 5 4 4 5 4 3 4 7 9 11 11 12 13 14 14 13 14 16 17 15 12 12 16 18 20 20 19 20 20 16 14 13 12 13 12 12 12 10 11 10 7 9 12 16 13 9 8 9 6 6 7 5 5 9 11 12 12 13 13 14 16 19 21 22
15 15 14 15 15 16 16 16 16 15 14 14 14 14 15 14 12 11 11 11 11 10 8 7 6 5 5 4 2 2 2 3 6 10 12 13 12 13 15 14 14 15 17 16 14 16 19 19 20 19 18 20 19 13 12 14 15 14 12 13 12 11 12 11 9 8 10 15 17 13 10 8 6 8 9 7 7 10 13 14 13 13 14 14 16 20 21 22
15 15 15 15 15 16 16 16 16 15 15 14 13 14 15 14 12 11 12 11 11 11 9 8 8 6 5 4 0 1 1 2 4 7 10 12 12 12 14 15 15 15 16 18 19 20 21 20 19 20 19 20 18 14 14 15 15 14 13 12 11 12 12 11 11 10 11 16 19 18 13 9 7 9 10 8 8 9 12 14 14 14 15 14 16 20 22 22
15 15 15 15 16 16 16 16 16 15 15 14 13 14 14 12 11 11 10 10 11 11 9 9 9 8 6 4 3 5 5 5 5 6 8 10 12 13 14 16 18 17 18 20 22 25 23 21 21 21 20 19 18 17 16 16 15 13 12 10 10 13 13 10 11 11 11 14 20 21 16 12 11 10 10 9 9 9 11 13 14 15 15 15 16 19 22 22
16 16 16 16 17 17 16 16 16 16 15 14 13 14 13 11 11 11 10 10 11 10 10 10 10 9 7 6 7 8 8 7 6 6 7 8 10 13 15 17 20 20 20 22 25 27 25 22 23 22 21 20 19 19 17 16 15 13 12 10 8 12 14 11 10 12 9 10 19 23 18 13 13 12 11 11 10 10 11 13 14 15 15 15 15 18 23 23
17 17 17 17 18 18 17 16 16 17 16 14 13 14 13 12 11 11 10 10 11 11 10 11 11 10 9 8 9 10 9 7 6 6 7 8 9 12 15 18 21 21 22 26 28 28 26 23 22 21 22 22 21 19 16 16 17 14 12 11 8 9 13 12 7 9 10 11 16 20 21 16 13 14 14 13 12 12 12 12 13 15 15 16 15 17 22 23
18 18 18 18 19 19 18 17 17 16 16 14 13 12 12 12 12 12 11 11 12 12 11 12 12 12 10 11 11 11 10 8 8 6 4 6 8 12 14 17 21 23 24 29 31 29 26 23 21 21 23 25 23 21 19 16 16 14 11 11 10 9 12 13 7 2 6 11 13 16 21 19 15 16 17 15 14 13 13 11 11 14 15 16 16 17 21 22
18 19 18 18 19 19 19 17 16 16 15 14 12 11 11 11 11 12 12 12 12 12 12 12 14 14 11 13 13 12 11 10 9 5 1 4 8 12 15 16 20 24 26 31 32 29 27 23 22 24 25 26 25 24 22 18 15 13 11 11 12 12 15 17 12 2 2 8 13 16 20 18 18 20 20 18 16 14 14 14 14 15 16 17 17 18 20 21
17 18 18 18 18 18 18 17 15 15 14 13 13 12 11 10 10 11 12 12 12 13 13 12 14 14 12 14 12 10 11 10 9 6 5 5 7 11 14 15 20 24 27 30 30 29 26 24 25 27 26 24 24 23 22 21 18 14 13 13 15 16 17 17 14 8 4 9 14 14 18 20 22 25 25 22 20 17 18 20 21 19 18 17 18 19 19 19
17 17 17 17 16 17 16 15 14 14 15 14 12 12 11 11 11 11 11 11 12 12 13 12 14 14 14 14 10 9 11 10 10 9 8 6 7 11 12 14 17 23 27 29 28 27 25 25 28 26 23 21 21 21 21 22 22 18 15 15 17 19 18 17 14 10 6 11 13 10 15 21 25 29 29 27 26 23 21 21 21 21 19 17 17 18 18 18
16 17 18 17 16 16 15 14 14 14 14 14 12 11 10 10 11 10 8 8 10 10 11 13 13 13 14 14 10 9 11 10 11 11 9 8 6 10 12 12 13 17 25 28 26 25 24 26 27 23 20 19 18 18 19 21 23 22 18 17 19 21 19 15 14 11 6 10 12 10 15 20 24 31 34 33 33 28 22 19 18 18 18 18 17 18 18 19
17 17 18 18 16 16 16 14 13 14 14 14 11 10 8 7 9 8 4 4 6 8 10 13 12 11 13 14 13 10 11 12 10 9 9 8 5 7 10 10 9 11 20 26 24 23 24 25 24 21 18 19 18 16 16 17 20 22 21 20 22 21 16 14 12 8 6 10 13 15 19 21 21 31 37 36 34 30 24 20 19 19 17 14 13 16 19 20
18 18 18 18 17 16 16 14 13 14 14 12 8 5 4 5 7 5 2 2 4 6 8 11 12 12 13 13 12 11 13 12 8 7 9 8 5 8 9 9 9 10 16 22 21 20 22 18 16 19 17 16 17 16 15 16 18 20 21 22 24 21 15 14 11 7 9 11 12 15 18 20 20 29 39 37 33 30 27 24 24 24 21 17 16 18 20 19
18 19 18 18 17 16 15 14 14 14 13 9 6 4 4 5 4 2 2 4 5 6 7 10 11 12 13 12 12 13 12 10 9 9 10 8 6 8 11 10 10 11 12 14 12 13 16 11 9 14 14 13 15 16 17 17 18 19 22 23 23 19 13 13 10 12 15 10 5 5 7 12 19 29 39 39 36 34 32 30 28 27 25 25 24 22 22 21
19 19 19 18 18 16 15 14 13 13 10 7 6 6 5 4 3 3 4 5 6 8 10 12 10 10 12 12 14 15 11 9 11 11 10 7 4 5 9 11 11 12 10 8 8 8 10 9 9 10 9 9 11 13 15 17 18 21 22 22 20 17 14 13 12 14 16 12 7 7 9 8 15 29 39 41 38 37 35 33 31 29 28 27 25 24 24 22
20 20 20 19 19 17 14 12 13 12 8 6 7 6 4 2 3 6 6 5 6 9 11 10 8 10 11 12 15 13 8 10 11 9 8 6 3 2 7 11 11 12 9 7 8 9 9 8 9 10 10 12 12 12 11 12 18 21 16 15 17 17 15 14 14 16 17 18 18 17 15 11 15 26 37 41 40 38 38 36 34 31 30 27 26 26 26 24
21 21 20 20 20 18 14 11 12 10 7 8 8 5 2 3 5 6 4 2 4 9 11 10 9 11 12 13 13 9 8 12 10 8 7 3 2 2 4 10 11 11 9 7 9 10 9 8 7 7 8 12 15 13 9 10 18 16 7 9 15 15 15 15 15 17 17 17 19 16 11 10 11 20 32 40 41 41 41 39 35 33 31 30 28 27 27 26
22 22 21 20 20 17 12 10 10 8 6 6 5 2 3 5 6 5 2 1 5 9 10 10 9 9 11 11 11 9 10 12 9 8 6 1 2 2 3 6 9 12 11 10 11 11 11 9 5 2 2 5 9 11 8 10 15 12 8 13 17 15 17 16 16 20 17 11 14 15 10 9 6 13 28 37 42 44 42 39 35 33 32 32 31 29 28 27
23 22 21 19 17 14 10 8 8 6 3 2 3 4 5 6 4 2 1 3 5 8 7 7 8 9 10 9 9 10 11 11 9 7 5 2 3 3 2 3 6 11 12 11 13 13 13 10 4 1 4 6 8 11 10 11 13 14 13 14 16 17 19 19 18 20 13 8 12 12 11 13 5 9 23 32 37 41 41 40 37 35 33 32 32 30 29 29
23 22 20 17 15 13 9 7 6 3 0 2 4 7 8 7 4 2 2 5 5 5 6 6 7 8 8 9 10 10 10 10 8 6 6 4 2 4 4 3 5 7 8 9 12 14 14 11 5 3 8 10 10 12 13 12 13 14 12 11 11 12 14 15 16 15 8 5 7 4 8 13 8 6 13 18 21 29 37 40 39 37 34 31 30 30 28 29
21 20 18 15 14 12 9 6 4 2 3 5 7 9 8 7 7 7 4 5 4 3 5 6 7 8 7 10 12 11 11 10 8 7 7 4 2 5 5 4 5 5 5 6 7 8 10 10 7 7 9 10 9 12 14 14 15 14 13 11 9 4 4 6 7 7 6 5 8 7 5 7 9 8 9 10 11 16 26 32 36 38 36 32 29 29 28 28
18 16 15 15 15 12 8 5 4 5 6 7 8 7 7 6 6 10 7 5 5 5 4 6 8 8 8 12 12 11 12 12 9 8 7 4 4 7 6 4 5 4 4 5 2 3 7 7 7 9 7 2 3 6 9 12 15 14 11 9 8 4 2 2 3 1 3 6 9 8 3 4 7 7 7 10 12 13 16 21 29 35 37 35 31 28 28 29
15 13 13 14 13 10 8 5 6 8 9 9 8 10 12 9 7 11 11 9 8 7 4 6 8 9 11 13 12 10 11 11 8 8 7 4 5 7 6 5 5 4 3 2 2 2 5 6 5 7 5 5 6 5 2 8 13 12 8 7 9 7 4 3 3 3 3 5 7 8 4 3 3 0 4 7 10 11 14 15 21 30 35 38 35 33 33 33
14 13 13 11 9 10 9 9 10 10 12 12 12 15 16 12 9 10 11 9 8 9 7 5 7 11 12 10 9 9 9 8 6 5 5 5 5 7 5 5 5 3 2 1 2 3 1 3 3 4 4 5 6 8 6 5 9 8 6 6 7 7 6 5 5 5 2 1 3 6 4 4 4 2 2 5 7 9 11 13 17 23 29 37 39 37 36 36
14 12 9 7 11 14 14 14 11 9 10 10 13 16 18 14 11 11 9 7 7 7 5 5 5 10 10 7 8 9 8 8 6 5 8 9 8 8 7 6 6 5 4 3 2 3 1 2 3 1 2 3 5 8 8 1 6 7 5 5 7 6 5 6 6 5 2 1 1 4 1 1 2 1 4 2 7 9 11 14 17 17 21 31 37 37 37 37
11 12 12 12 16 17 16 17 15 13 11 9 11 17 18 13 11 10 7 5 6 6 2 6 7 8 9 8 10 12 10 9 7 7 11 11 9 10 9 8 8 7 6 5 4 5 5 3 3 2 2 3 5 5 3 4 3 4 2 2 7 8 4 3 3 1 2 1 1 3 4 10 8 6 11 8 5 9 13 19 24 23 22 26 29 31 32 33
13 17 17 16 16 15 14 15 16 16 15 13 15 17 14 11 9 8 6 4 3 3 4 10 12 11 12 12 11 11 11 10 7 7 10 10 8 9 8 7 7 7 7 5 4 6 7 7 5 4 2 4 5 2 3 6 8 5 4 1 4 6 3 1 2 1 2 3 2 2 6 15 18 17 20 18 10 7 11 19 25 30 32 29 24 24 26 26
14 15 15 15 14 13 14 15 14 14 16 17 17 15 11 10 9 7 6 3 2 2 6 10 11 13 15 14 12 10 9 9 8 8 9 10 9 8 7 6 5 5 6 4 4 7 8 6 3 4 5 6 8 7 7 6 6 4 3 3 6 6 3 3 3 2 1 3 3 1 4 10 19 23 25 24 18 12 11 16 21 27 34 35 29 25 24 24
9 9 10 12 12 12 14 16 15 14 15 17 16 12 10 10 8 5 3 1 2 5 8 9 9 13 16 13 12 12 11 11 10 9 11 11 9 6 5 5 4 3 5 4 4 6 7 7 6 9 11 9 10 13 13 8 6 5 4 6 9 7 4 4 5 6 5 1 2 1 3 7 18 22 22 24 21 14 11 14 18 21 27 32 33 31 28 26
4 4 6 8 9 9 10 14 15 14 13 12 11 9 8 8 7 5 3 1 3 8 10 9 10 12 12 12 13 14 14 14 13 13 14 13 10 7 4 4 4 2 3 4 4 5 6 8 11 15 14 11 11 12 11 10 11 11 13 16 17 13 7 4 3 7 9 5 3 2 3 6 18 21 18 22 23 17 13 13 16 18 21 24 27 30 32 32
0 2 3 4 6 7 8 11 12 13 13 12 10 9 7 6 5 4 3 3 5 10 11 11 11 10 9 13 14 13 14 15 15 15 15 14 12 10 7 4 5 4 4 5 5 5 7 9 11 14 14 9 8 12 12 11 10 9 12 15 15 15 15 9 3 8 12 9 6 3 3 5 14 19 16 19 23 19 15 15 16 16 20 22 22 24 28 32
3 3 2 1 2 5 7 10 11 12 14 12 10 9 8 5 4 2 2 3 4 7 10 11 10 9 10 11 11 10 10 14 15 14 14 13 12 11 7 4 3 4 4 4 4 6 8 8 10 11 10 8 11 14 13 11 8 7 9 11 12 13 15 9 3 8 10 9 12 8 1 4 9 18 16 14 19 18 13 13 13 15 19 24 25 25 25 30
3 3 3 1 2 4 5 9 11 11 12 9 6 7 6 4 3 2 1 2 3 4 8 11 9 8 8 6 7 8 8 11 14 13 13 13 12 10 8 5 5 4 4 4 6 7 6 6 9 7 7 7 8 8 7 7 5 6 7 9 9 9 11 5 4 7 6 8 15 8 3 5 12 18 14 9 15 18 13 10 9 10 15 22 25 25 24 28
2 3 3 1 3 4 4 7 8 8 8 6 4 6 6 4 5 4 1 1 4 3 5 9 8 5 4 2 4 6 7 9 12 11 11 11 10 8 7 6 5 6 6 6 7 8 6 7 8 6 6 3 2 2 2 4 7 10 9 8 7 8 11 7 5 8 7 13 17 7 7 14 13 11 11 8 12 16 14 10 6 3 6 16 22 23 24 28
1 2 3 3 2 1 3 4 4 4 5 4 3 6 6 5 8 6 2 3 4 2 2 6 6 4 4 3 3 4 6 7 7 7 8 9 7 6 5 3 2 5 5 5 6 7 5 7 10 9 8 5 3 3 5 9 12 13 11 9 7 7 9 8 7 8 10 18 16 6 12 19 12 10 14 14 12 12 14 12 9 10 6 5 17 24 28 32
5 1 1 2 2 3 2 3 2 3 5 4 4 6 6 4 6 6 4 5 5 1 1 3 4 6 6 5 4 3 4 3 3 3 3 4 5 5 3 1 1 3 3 4 5 4 2 6 9 8 6 5 3 3 6 8 9 12 13 12 10 9 9 8 8 8 11 15 12 8 14 19 16 18 21 19 14 10 12 13 12 14 14 9 3 18 28 33
7 4 3 4 6 7 6 5 4 1 4 4 4 7 5 3 3 3 3 4 4 2 2 1 3 5 5 6 5 3 2 4 4 2 1 2 3 4 4 4 4 4 4 6 6 3 1 5 5 4 4 4 4 4 6 7 8 9 11 12 12 11 10 9 8 8 10 10 12 15 17 16 17 21 22 20 17 15 13 12 10 11 13 15 9 7 21 27
6 5 5 7 7 8 8 7 8 6 1 4 5 6 5 2 2 2 2 4 3 2 2 1 1 2 4 6 7 7 6 6 6 5 4 4 4 5 5 6 6 6 7 7 6 4 1 4 3 3 3 4 5 5 6 7 7 9 10 10 11 9 8 8 7 8 9 10 13 15 15 13 15 18 18 18 19 19 17 13 11 12 10 12 15 5 13 22
6 5 5 5 5 5 5 4 5 5 1 4 5 5 4 3 3 4 4 5 5 4 4 3 2 3 5 7 8 8 8 8 8 9 8 7 6 6 6 6 6 6 7 8 7 6 2 1 2 5 5 3 5 7 7 8 9 11 9 7 5 4 5 6 7 10 12 14 13 12 11 11 12 16 17 17 18 18 16 15 15 15 12 11 14 11 2 14
7 6 5 3 4 4 4 4 4 4 1 4 5 5 5 5 6 7 7 7 7 6 6 5 5 6 8 9 9 8 8 9 10 11 11 11 10 10 9 7 6 7 8 6 5 4 3 1 2 6 7 6 7 9 10 11 12 9 5 3 2 2 3 4 5 9 12 13 14 12 10 10 13 17 18 17 19 19 16 16 17 17 17 16 13 10 5 6
7 6 5 5 7 6 5 7 6 4 3 1 1 3 4 4 5 6 6 7 7 8 8 8 8 8 9 10 11 11 11 12 13 13 14 14 14 13 12 11 9 9 8 7 5 4 3 3 3 5 7 8 10 12 13 15 13 5 4 3 1 3 5 4 3 6 10 12 12 9 7 8 12 17 20 20 21 21 18 17 17 18 19 20 17 12 8 3
Wind_Direction
313 312 312 313 312 310 309 308 306 304 302 300 298 296 295 295 294 294 293 289 283 282 281 277 272 264 258 254 252 250 248 245 238 233 227 224 221 213 211 201 192 199 202 200 194 189 193 196 200 201 196 188 182 180 178 173 157 125 104 95 87 75 65 61 64 51 41 110 141 122 140 172 177 174 176 172 161 162 161 153 159 172 175 178 188 177 167 168
313 312 313 313 312 310 308 306 305 303 301 299 297 294 293 292 291 290 290 288 284 281 281 279 277 271 264 258 254 249 245 242 237 232 224 219 219 215 210 203 192 191 194 193 188 187 192 198 201 202 197 187 183 187 189 182 163 127 103 98 91 77 68 66 67 50 35 54 164 130 142 162 173 180 178 176 174 173 176 169 170 181 184 180 187 183 174 174
313 312 313 314 313 310 307 305 304 304 304 301 297 293 292 291 290 288 287 287 285 282 281 280 277 274 269 261 256 251 243 238 236 231 224 219 216 213 208 202 193 185 187 185 179 182 190 195 197 200 196 187 185 190 190 179 162 134 112 104 94 84 73 63 62 48 35 38 100 134 153 161 165 181 184 178 182 186 189 185 182 184 183 181 183 184 180 177
313 312 312 313 312 308 304 302 303 306 308 307 302 296 292 290 289 288 288 287 286 285 283 280 278 274 270 261 255 248 239 238 237 230 224 219 213 210 204 195 195 191 189 190 182 183 190 192 189 191 192 188 186 188 187 176 162 141 123 109 96 87 71 53 45 45 43 35 41 121 137 160 166 178 180 169 177 185 187 191 213 196 189 181 177 183 182 179
315 313 312 311 309 304 299 297 299 304 309 310 309 303 296 290 287 287 287 287 287 287 287 285 280 273 268 261 253 239 234 238 235 225 219 218 214 209 203 193 196 193 188 197 194 191 194 191 187 187 185 187 189 186 181 173 163 142 124 117 107 98 80 56 32 29 43 27 16 116 117 139 168 174 166 154 157 140 160 182 180 197 202 188 175 183 181 179
315 314 312 310 307 301 295 292 294 298 302 305 307 308 304 295 287 286 286 287 289 289 291 292 288 277 265 258 251 235 226 229 227 222 217 215 213 208 203 195 195 194 189 201 205 199 197 192 191 189 183 185 186 178 173 170 164 147 130 124 112 103 89 73 0 359 19 16 13 67 125 159 176 179 174 151 140 127 175 194 166 174 197 194 182 184 179 180
314 312 310 308 305 299 294 290 291 294 296 298 298 300 302 299 291 285 284 286 288 289 295 299 300 288 266 254 248 234 218 217 218 217 215 214 211 207 202 196 194 193 189 201 211 204 200 196 193 192 187 182 177 168 168 170 166 156 139 125 96 68 56 24 264 267 354 359 12 27 83 155 183 186 180 166 163 172 174 183 170 161 178 190 190 186 180 180
312 310 308 305 302 297 293 291 291 292 294 295 293 292 291 293 289 285 284 284 285 287 294 301 307 300 278 256 244 230 211 207 207 207 211 213 210 205 202 198 193 189 189 198 206 203 204 198 191 196 192 178 169 166 169 177 176 167 144 118 36 341 327 308 261 220 240 275 307 8 97 150 166 163 176 182 179 174 167 175 177 165 171 187 193 191 183 179
312 309 306 303 299 295 291 289 289 290 293 293 292 289 285 283 282 281 280 279 280 282 289 298 305 310 296 268 245 228 208 200 200 207 215 218 213 207 202 199 192 188 189 191 197 198 196 190 187 196 191 175 170 169 173 186 189 184 179 282 287 283 287 278 255 227 226 255 280 278 186 174 169 162 175 194 192 178 173 180 185 177 178 188 194 196 189 182
313 310 305 301 298 294 289 287 285 286 289 289 289 287 283 279 276 274 274 273 274 275 282 288 297 310 306 285 261 233 206 195 192 200 214 219 214 207 201 198 193 190 190 191 195 190 173 180 181 187 187 179 174 171 177 189 190 207 234 261 266 261 266 270 258 232 225 242 258 222 241 201 180 184 181 192 200 189 184 188 190 185 186 191 196 198 194 189
313 311 306 301 297 293 290 287 285 284 285 285 285 284 282 278 275 272 270 269 267 266 269 272 283 298 302 293 274 242 205 194 188 186 201 214 209 200 195 194 192 191 192 191 188 169 161 177 183 185 184 181 179 176 182 191 200 224 238 245 250 256 258 258 254 231 225 231 224 198 215 207 195 204 195 186 199 197 193 197 194 187 190 197 202 201 195 193
314 311 307 302 297 294 292 290 288 286 285 285 283 282 281 277 275 273 270 267 263 259 256 258 264 277 291 289 277 260 221 201 195 188 191 202 204 198 191 188 190 191 191 187 177 169 169 176 184 184 183 183 185 186 186 199 220 229 242 248 243 246 246 242 239 233 232 229 218 197 206 222 214 201 204 194 195 200 199 204 199 188 193 202 209 204 195 194
314 311 308 303 299 295 293 291 290 288 285 284 283 282 279 277 276 273 269 266 260 255 248 245 243 254 278 284 288 293 267 214 202 199 195 192 192 197 195 189 189 189 187 179 169 171 173 176 180 179 185 189 188 193 194 205 225 226 236 247 241 240 239 233 229 233 237 228 222 218 221 231 199 189 211 204 191 200 198 202 201 191 194 203 211 207 195 193
315 313 310 306 301 297 295 293 290 288 285 283 281 280 278 278 278 273 269 264 257 252 243 234 231 235 255 261 279 81 199 182 187 194 196 192 185 190 195 191 189 187 182 175 170 170 172 174 178 181 190 193 192 203 207 206 219 223 227 237 239 237 233 230 229 229 229 222 222 230 238 241 209 203 221 213 198 203 198 197 198 195 196 201 210 207 198 193
317 315 312 307 303 299 296 294 291 289 285 283 282 278 277 278 277 272 270 265 256 249 238 227 222 223 232 221 146 130 139 129 140 163 174 183 183 183 188 188 186 183 178 176 172 169 171 177 184 189 193 197 202 210 213 210 213 223 225 224 229 229 222 225 231 230 229 219 215 224 239 243 234 227 230 225 210 204 204 199 197 198 198 201 207 207 202 196
318 315 312 309 304 300 298 296 292 291 287 285 284 279 277 275 272 270 267 264 257 249 236 224 219 213 207 188 162 152 144 122 119 140 147 163 181 181 183 187 184 179 176 176 171 169 176 186 191 195 196 202 210 211 217 220 215 222 227 215 209 217 217 219 229 231 239 230 215 220 234 235 232 232 230 232 218 201 206 204 202 203 200 203 206 205 206 200
316 315 313 309 305 302 301 298 296 294 292 290 286 283 280 273 268 266 263 258 252 245 231 221 214 204 196 185 174 166 154 129 116 124 132 152 174 177 182 188 182 175 175 175 171 173 182 192 197 199 200 205 210 212 222 228 219 218 227 222 210 207 214 215 217 229 241 243 229 228 235 230 233 244 241 238 227 209 210 209 207 209 205 205 206 205 206 204
316 314 312 309 305 303 302 301 299 298 297 295 290 285 281 276 271 264 258 251 245 237 224 219 209 195 192 185 179 177 164 134 111 102 114 158 170 172 179 187 181 174 176 177 176 180 187 195 200 202 205 208 209 213 221 224 219 218 226 230 224 211 211 207 192 213 256 249 246 244 241 232 231 244 248 248 241 222 217 218 212 211 210 207 207 207 206 206
317 314 311 308 304 302 303 304 303 302 300 298 295 288 280 277 270 261 255 243 236 228 215 214 203 192 189 185 185 186 171 141 120 110 145 184 177 172 175 184 182 176 178 182 181 185 191 196 204 205 207 210 211 216 221 221 218 220 227 231 231 227 215 206 198 199 311 262 255 257 257 247 233 234 239 244 245 232 224 225 218 211 212 211 209 210 209 207
319 315 310 307 303 302 303 305 306 304 301 299 299 296 291 285 266 252 246 235 230 223 212 211 204 196 189 186 188 183 168 147 137 145 153 160 172 174 173 181 184 178 180 185 185 188 194 199 206 208 208 212 215 220 225 226 222 224 230 229 234 239 226 210 207 213 253 269 266 270 274 264 247 238 237 240 241 232 223 223 221 214 210 211 209 209 211 206
326 320 314 311 308 305 306 307 306 303 301 299 299 300 297 288 269 253 243 234 228 217 212 211 199 190 186 188 195 187 177 159 142 148 143 136 160 174 174 176 182 183 182 186 188 191 197 204 209 210 210 215 218 222 228 230 228 229 233 234 238 243 237 226 225 227 241 265 264 272 280 269 256 245 236 233 237 234 227 223 221 216 212 211 208 207 210 205
334 327 320 317 316 311 308 307 304 299 298 298 304 314 308 282 262 257 248 226 219 213 209 207 197 192 191 200 215 207 195 170 145 146 139 122 139 172 186 179 177 185 184 186 191 196 204 210 211 211 214 218 221 224 227 229 232 232 236 245 245 242 245 245 240 234 244 267 259 258 276 275 262 249 238 232 236 241 240 234 226 218 214 211 206 205 207 205
339 333 325 322 321 314 309 307 303 297 295 301 317 336 328 285 260 259 249 198 208 205 199 204 202 195 190 200 213 205 187 167 151 154 143 122 127 170 193 187 173 184 186 187 192 198 208 216 213 212 218 223 223 225 227 228 231 232 234 244 243 239 250 257 240 230 250 264 263 267 278 283 266 244 236 233 236 243 246 241 235 228 224 222 211 207 208 207
342 338 331 326 325 316 309 306 301 296 296 308 325 343 330 283 268 261 231 142 175 181 186 198 190 176 174 183 186 168 159 154 151 161 140 119 127 147 161 169 169 175 180 185 192 201 212 217 213 212 217 221 222 223 225 225 224 226 228 233 237 236 251 263 250 272 284 256 261 279 275 272 259 234 226 226 227 232 237 233 230 229 229 234 228 216 212 212
342 340 336 331 329 319 309 305 299 295 299 313 316 292 268 255 247 227 140 113 139 154 160 166 161 158 161 159 150 141 144 143 140 139 116 106 133 150 156 158 163 166 166 174 186 204 211 206 197 203 207 213 220 221 216 218 225 229 225 225 233 239 255 268 267 297 298 270 260 308 270 252 248 232 222 218 217 221 226 227 227 227 225 228 229 221 214 215
339 338 335 334 333 325 313 307 298 294 302 312 292 272 266 248 204 145 113 101 122 135 139 141 143 154 155 145 139 137 140 137 135 133 107 97 133 171 178 170 162 164 165 174 192 206 195 182 194 202 203 213 227 230 218 216 231 238 230 223 232 247 260 267 273 287 290 283 285 300 293 262 234 226 219 214 217 219 221 224 226 225 223 225 227 224 217 215
338 336 333 333 333 328 317 306 296 292 295 284 264 260 258 218 150 133 119 93 116 132 135 135 136 148 146 141 143 144 149 137 130 140 127 100 96 158 197 192 178 170 172 184 196 203 192 189 211 216 221 230 235 235 218 218 239 242 233 227 235 245 250 260 274 279 281 287 290 288 283 260 230 228 219 212 214 217 219 223 225 225 224 222 224 223 220 218
339 337 334 331 330 329 321 304 290 285 280 262 253 252 222 156 138 138 132 91 130 135 129 120 120 133 134 136 142 145 156 146 129 139 145 121 80 89 188 198 193 188 196 205 193 194 199 198 205 213 231 243 241 233 222 238 248 241 228 242 247 246 251 261 270 277 286 289 289 287 266 240 243 237 221 212 212 215 220 225 226 225 224 223 223 222 220 220
341 339 337 333 331 332 325 303 289 287 280 258 242 213 164 147 138 134 120 94 134 133 125 113 110 122 131 140 146 135 137 145 134 128 133 137 184 140 132 173 194 205 215 224 207 193 200 203 194 184 254 258 241 231 232 246 244 239 252 263 260 255 256 259 262 272 282 274 276 285 248 222 259 236 215 209 212 218 224 229 231 228 226 226 225 222 221 221
342 341 340 337 335 339 335 312 299 301 292 227 199 170 146 134 134 129 80 97 121 133 130 115 110 114 120 136 146 131 127 130 120 125 149 171 185 176 143 154 192 206 214 227 223 209 206 216 222 264 268 252 223 217 227 234 234 245 262 266 265 263 259 259 261 265 268 252 267 278 231 217 255 237 216 213 218 225 229 231 233 231 228 228 227 224 222 221
343 343 342 339 341 346 343 326 318 318 212 151 146 142 125 105 82 32 118 114 104 134 133 111 124 126 118 133 140 133 136 131 110 127 166 165 168 170 171 187 180 187 202 215 228 226 220 228 231 220 252 253 229 223 229 229 232 243 254 258 264 266 258 256 255 248 241 244 249 229 199 212 224 236 231 231 236 238 236 235 235 232 229 229 226 223 221 220
346 347 345 345 347 348 349 341 351 48 111 122 127 130 117 94 60 41 92 123 78 102 124 112 134 136 125 138 140 134 137 133 121 138 156 154 158 151 149 170 161 160 171 176 207 223 218 229 220 204 240 256 246 241 233 223 229 237 240 243 246 250 244 241 238 221 214 225 206 173 164 214 231 253 256 256 262 255 247 243 241 237 234 231 227 223 221 221
351 351 349 350 348 353 2 0 24 65 99 112 121 127 114 101 61 42 58 95 63 65 117 134 134 130 134 141 140 138 134 129 132 145 152 160 150 133 123 132 145 139 131 145 163 141 159 179 179 184 206 248 275 258 236 219 220 225 229 231 222 199 146 222 245 232 236 225 193 184 210 236 244 266 271 264 269 274 269 258 250 246 240 237 234 229 225 224
354 349 347 346 348 3 19 39 68 86 97 96 111 121 104 84 55 47 58 73 75 81 120 155 141 133 141 139 136 143 136 125 137 154 157 172 147 126 122 119 129 133 121 129 356 55 135 146 145 161 145 68 36 19 313 230 217 214 218 225 227 223 205 212 222 194 218 223 175 171 191 171 162 336 313 284 281 288 290 278 261 253 246 241 239 235 231 229
357 351 349 351 12 40 54 73 86 92 90 95 123 120 93 63 38 40 46 54 74 94 121 164 157 139 137 132 135 156 155 139 154 174 161 168 146 114 101 93 102 121 127 122 354 7 138 139 122 131 96 44 19 18 354 245 207 208 208 203 219 232 235 243 230 203 203 300 147 160 166 144 138 59 340 257 262 281 288 286 271 257 248 244 241 239 236 234
360 4 16 43 70 73 73 74 76 82 89 119 136 101 72 52 38 35 28 35 55 73 125 165 152 136 131 121 132 149 162 159 170 161 118 115 115 98 87 80 72 67 79 89 47 25 42 133 151 150 22 345 5 10 348 287 179 198 202 196 203 199 224 253 240 219 209 23 126 170 170 346 194 99 19 256 232 241 247 256 261 258 251 245 242 243 242 239
23 52 70 83 85 79 76 76 80 88 101 136 128 82 63 53 47 40 31 39 43 31 119 138 102 101 112 116 129 142 155 155 156 144 114 104 96 87 89 86 67 53 60 65 38 9 343 319 288 287 319 332 4 16 355 42 91 179 174 216 214 193 198 243 219 182 128 147 260 183 88 34 24 358 350 340 257 230 226 231 240 243 245 246 245 244 243 242
73 82 82 86 85 76 76 80 84 89 97 110 100 77 64 60 56 50 50 66 67 33 89 107 91 87 101 110 115 133 159 155 146 146 124 108 93 84 83 81 70 54 51 50 27 359 335 327 313 295 317 345 349 26 110 59 55 78 88 98 176 168 168 143 140 87 106 149 269 233 95 48 26 5 357 359 352 298 243 226 229 234 237 241 244 243 239 238
91 88 86 89 84 75 79 82 82 88 91 92 86 75 70 68 57 46 51 75 151 93 79 93 97 92 96 105 107 112 138 139 134 144 125 108 100 93 82 72 70 58 53 55 28 1 337 334 324 290 318 332 337 14 44 46 55 80 128 146 116 115 125 73 60 347 351 167 209 250 90 48 24 14 9 6 359 336 284 247 232 230 233 236 239 242 241 241
97 89 93 95 84 78 84 83 80 84 86 85 82 80 82 79 65 45 35 44 140 111 88 91 109 99 92 103 111 105 106 108 117 129 118 107 103 103 103 87 77 56 43 32 11 354 327 318 304 292 308 333 3 29 39 40 44 53 80 83 60 66 136 112 60 38 31 60 180 76 100 51 24 14 11 7 358 341 311 274 246 233 232 235 238 242 245 247
103 81 87 94 86 82 86 84 81 83 86 84 80 81 85 85 82 71 46 22 109 108 100 102 116 111 100 104 108 105 103 102 106 108 104 103 95 83 83 77 62 45 20 354 335 327 319 315 313 316 331 5 49 73 83 80 70 65 67 60 47 47 66 77 55 40 28 5 350 26 154 74 26 12 13 14 0 343 326 296 263 243 233 234 238 242 247 250
57 29 48 78 84 80 85 88 89 91 91 88 85 90 101 109 102 83 74 95 111 109 110 113 119 123 114 103 105 111 109 101 98 100 100 99 90 76 64 48 36 25 0 345 334 331 329 318 320 342 4 30 96 122 125 114 98 91 82 66 56 51 41 32 2 359 5 7 8 358 167 100 29 11 14 18 8 354 333 307 280 252 231 228 233 237 245 250
285 341 3 346 81 83 90 94 100 105 102 101 102 100 109 118 104 97 129 127 117 114 116 115 117 121 110 104 114 120 110 99 97 104 106 97 87 78 63 27 11 20 13 3 347 334 335 329 331 1 40 92 137 139 138 138 125 107 87 61 54 44 29 34 46 3 6 21 14 2 170 140 17 5 7 17 19 10 342 313 293 263 233 224 228 230 234 242
275 303 319 274 120 112 110 99 104 115 113 114 112 94 97 116 99 85 194 134 107 118 119 112 112 114 105 114 137 125 117 117 109 108 108 97 90 87 67 22 350 344 353 5 351 338 346 354 348 9 64 104 131 131 141 147 103 54 39 28 30 27 23 65 85 20 26 14 360 352 255 285 336 353 356 10 27 27 12 349 322 279 241 225 226 226 223 229
271 277 316 343 100 125 136 109 109 128 129 128 119 83 78 103 100 79 22 104 91 95 119 111 109 123 123 155 160 127 126 138 127 117 114 106 98 93 75 48 15 352 347 352 352 352 11 27 25 61 102 113 100 65 338 308 335 344 346 353 358 7 17 36 22 12 13 340 335 336 319 311 312 335 343 354 22 33 35 24 16 352 247 221 217 215 213 219
44 251 281 308 332 103 157 144 135 159 162 162 143 95 81 106 118 111 133 141 102 68 150 131 130 167 183 206 194 135 119 131 133 131 133 125 110 94 89 97 41 353 341 338 355 7 32 51 50 71 100 107 95 48 334 320 326 325 320 322 323 335 353 3 4 7 354 331 320 328 346 331 313 322 335 337 349 15 32 35 48 49 35 210 206 207 209 215
61 114 251 307 6 43 130 168 204 218 204 197 144 115 102 115 133 133 141 139 118 83 198 169 188 207 196 199 207 158 120 140 164 155 155 150 134 119 112 154 293 328 326 330 354 7 50 74 62 63 79 72 42 347 323 315 314 313 308 306 309 313 320 337 353 348 339 329 309 307 340 337 327 328 333 333 327 338 10 26 46 44 28 19 212 206 210 216
67 84 69 55 62 62 63 59 30 334 208 201 150 136 134 138 153 158 152 145 149 167 168 193 243 234 214 214 225 217 201 220 227 226 258 241 204 195 199 223 250 263 288 311 327 337 42 84 68 45 38 14 346 333 325 312 300 298 297 297 301 308 318 334 345 330 324 320 303 307 323 331 328 324 326 331 321 309 327 354 16 16 11 12 10 213 209 214
64 76 61 50 55 55 51 44 24 9 231 189 165 158 172 204 246 253 207 192 212 225 202 208 284 265 253 248 248 257 261 253 252 261 274 277 261 243 231 233 241 249 268 284 294 305 14 85 55 338 337 345 332 323 320 313 304 297 297 301 304 309 322 333 325 305 299 295 296 308 317 323 325 319 315 322 320 311 310 314 324 332 340 359 3 345 203 204
59 68 66 57 49 46 43 25 4 1 310 200 186 190 217 251 285 291 271 250 255 266 267 273 284 279 279 274 268 271 274 267 266 272 276 283 288 276 258 246 232 230 246 264 277 286 281 97 0 313 308 327 326 316 315 317 315 315 319 328 324 312 318 317 297 286 286 284 283 296 312 314 310 307 305 309 312 308 298 289 298 309 310 322 345 355 188 190
54 57 64 51 12 6 15 11 11 14 308 221 220 242 260 276 286 289 287 278 276 283 285 290 295 281 274 275 275 276 278 278 280 281 281 284 288 286 278 268 247 225 219 228 254 277 267 238 333 326 317 319 320 318 318 318 320 333 8 48 140 207 279 309 299 288 287 288 288 293 310 313 298 295 299 298 298 297 289 283 290 297 299 302 318 344 15 162
50 47 53 36 4 357 20 31 36 50 65 102 224 270 267 271 288 292 284 274 277 289 295 302 304 288 269 267 272 278 284 286 284 280 280 282 282 281 277 274 270 256 236 227 232 248 266 271 319 342 321 310 316 323 324 323 326 353 70 78 172 231 274 286 284 279 274 281 292 294 297 302 292 290 292 292 292 294 289 285 288 291 295 300 305 319 343 16
Height
3147 3146 3145 3145 3143 3142 3141 3141 3140 3139 3138 3138 3137 3136 3135 3135 3135 3134 3135 3135 3135 3135 3135 3135 3135 3135 3135 3135 3135 3135 3135 3136 3136 3137 3138 3139 3139 3140 3141 3142 3142 3143 3143 3145 3146 3147 3148 3149 3150 3151 3153 3154 3155 3156 3157 3158 3160 3159 3159 3159 3159 3160 3160 3160 3160 3160 3159 3160 3160 3160 3161 3161 3161 3161 3161 3162 3162 3164 3165 3165 3166 3168 3170 3172 3174 3174 3174 3175
3146 3145 3144 3144 3143 3141 3140 3139 3139 3138 3137 3136 3135 3135 3134 3134 3133 3133 3133 3133 3133 3133 3133 3134 3134 3134 3134 3134 3134 3134 3134 3134 3135 3135 3136 3137 3138 3139 3140 3141 3142 3142 3143 3144 3146 3147 3148 3149 3150 3151 3152 3153 3154 3155 3156 3158 3160 3159 3159 3159 3160 3160 3160 3160 3160 3160 3160 3160 3161 3160 3161 3161 3161 3162 3162 3163 3163 3164 3165 3165 3166 3167 3169 3171 3173 3174 3174 3175
3145 3144 3143 3142 3141 3141 3139 3138 3138 3137 3136 3135 3134 3133 3133 3132 3132 3132 3132 3132 3132 3132 3132 3132 3132 3133 3133 3133 3133 3133 3133 3133 3134 3134 3135 3136 3137 3138 3139 3140 3141 3141 3142 3143 3144 3145 3146 3147 3149 3151 3152 3153 3154 3155 3156 3157 3159 3159 3159 3159 3160 3160 3161 3161 3161 3161 3161 3161 3161 3161 3161 3161 3161 3162 3163 3163 3164 3164 3165 3165 3166 3166 3168 3169 3171 3173 3174 3176
3144 3143 3142 3141 3140 3139 3139 3138 3137 3136 3135 3134 3133 3132 3132 3131 3131 3130 3130 3131 3131 3131 3131 3131 3131 3131 3131 3131 3131 3132 3132 3132 3132 3133 3134 3135 3136 3137 3138 3139 3140 3140 3141 3142 3143 3143 3144 3145 3147 3149 3151 3152 3153 3154 3156 3157 3158 3158 3159 3159 3160 3160 3161 3161 3162 3162 3162 3162 3161 3161 3161 3161 3161 3162 3163 3163 3164 3165 3166 3166 3166 3167 3169 3169 3170 3172 3175 3176
3143 3142 3141 3140 3139 3138 3137 3137 3136 3135 3135 3134 3132 3131 3130 3130 3129 3129 3129 3129 3129 3129 3129 3129 3130 3130 3130 3130 3130 3131 3131 3131 3131 3132 3133 3134 3135 3136 3137 3138 3139 3139 3141 3142 3142 3142 3143 3145 3146 3147 3149 3150 3151 3153 3155 3157 3157 3158 3158 3159 3159 3160 3160 3161 3162 3163 3163 3163 3162 3162 3162 3162 3162 3162 3163 3164 3165 3166 3167 3167 3167 3168 3170 3170 3170 3172 3175 3177
3142 3141 3140 3139 3138 3137 3136 3136 3135 3135 3134 3133 3132 3131 3130 3129 3128 3128 3128 3128 3128 3128 3128 3128 3128 3128 3128 3128 3128 3129 3130 3130 3130 3131 3132 3133 3133 3135 3136 3137 3138 3139 3140 3141 3142 3142 3144 3145 3146 3147 3148 3149 3150 3153 3155 3156 3157 3157 3158 3158 3159 3159 3160 3161 3162 3163 3164 3163 3163 3163 3163 3163 3163 3163 3164 3164 3165 3166 3167 3168 3168 3169 3171 3172 3172 3173 3176 3177
3141 3139 3138 3137 3136 3136 3135 3134 3134 3133 3133 3132 3131 3130 3129 3128 3127 3127 3127 3127 3127 3127 3127 3127 3127 3127 3127 3127 3127 3128 3129 3129 3130 3130 3131 3132 3132 3133 3134 3136 3137 3138 3139 3140 3141 3142 3143 3144 3146 3147 3147 3148 3151 3154 3155 3156 3156 3157 3157 3158 3159 3160 3160 3161 3162 3163 3164 3164 3164 3164 3164 3164 3164 3164 3164 3164 3165 3166 3167 3168 3169 3169 3170 3172 3173 3174 3177 3179
3140 3138 3137 3136 3135 3134 3133 3133 3133 3132 3131 3131 3130 3130 3129 3128 3127 3126 3126 3126 3126 3125 3126 3126 3126 3126 3125 3125 3126 3127 3128 3128 3129 3130 3130 3131 3132 3132 3133 3134 3136 3137 3138 3139 3140 3142 3143 3144 3146 3147 3148 3149 3152 3153 3155 3155 3156 3156 3157 3158 3159 3159 3160 3161 3162 3163 3164 3164 3164 3164 3164 3164 3164 3164 3165 3165 3165 3166 3168 3168 3168 3169 3170 3171 3173 3175 3177 3179
3138 3137 3136 3135 3133 3133 3132 3131 3131 3131 3130 3129 3129 3128 3127 3127 3126 3126 3125 3125 3125 3124 3124 3125 3125 3124 3124 3124 3124 3125 3126 3127 3128 3129 3129 3130 3131 3131 3132 3134 3135 3136 3137 3138 3139 3141 3142 3144 3146 3148 3149 3150 3151 3152 3153 3154 3154 3155 3156 3157 3157 3158 3159 3160 3161 3162 3164 3164 3165 3165 3164 3164 3164 3164 3165 3166 3166 3167 3168 3168 3169 3169 3169 3171 3173 3175 3178 3180
3137 3136 3135 3133 3132 3131 3130 3130 3129 3129 3129 3128 3127 3126 3126 3125 3125 3125 3124 3124 3124 3123 3123 3123 3123 3123 3123 3123 3123 3124 3125 3126 3127 3127 3128 3128 3129 3130 3131 3133 3134 3135 3136 3137 3139 3140 3142 3144 3146 3147 3149 3150 3151 3152 3152 3152 3154 3155 3155 3155 3155 3156 3157 3158 3159 3161 3163 3164 3165 3165 3165 3165 3164 3164 3164 3165 3166 3166 3167 3168 3168 3169 3169 3171 3172 3174 3177 3180
3136 3134 3133 3132 3131 3130 3129 3128 3127 3127 3127 3126 3125 3125 3124 3123 3123 3124 3123 3123 3123 3123 3122 3122 3122 3122 3122 3122 3121 3122 3124 3124 3125 3126 3126 3127 3128 3130 3131 3132 3133 3134 3136 3137 3139 3140 3142 3143 3145 3146 3148 3149 3150 3150 3151 3152 3153 3153 3153 3154 3154 3155 3156 3157 3158 3160 3162 3163 3165 3165 3165 3165 3164 3164 3164 3165 3165 3166 3167 3167 3168 3168 3169 3170 3172 3174 3176 3179
3134 3133 3132 3130 3129 3128 3127 3127 3126 3125 3125 3124 3123 3123 3122 3121 3122 3122 3122 3122 3122 3122 3121 3121 3121 3121 3121 3121 3121 3121 3122 3123 3124 3125 3125 3126 3127 3129 3130 3131 3132 3134 3135 3137 3139 3140 3141 3142 3143 3145 3147 3147 3148 3149 3150 3151 3151 3152 3153 3153 3153 3154 3155 3156 3157 3159 3160 3162 3164 3164 3164 3164 3164 3164 3164 3165 3165 3165 3166 3167 3168 3168 3169 3170 3171 3173 3175 3178
3133 3131 3130 3129 3128 3127 3126 3125 3124 3124 3123 3123 3122 3121 3120 3120 3120 3120 3120 3120 3120 3120 3120 3121 3120 3120 3120 3120 3120 3120 3120 3121 3122 3123 3124 3125 3126 3127 3129 3130 3132 3133 3135 3137 3139 3139 3140 3141 3142 3144 3145 3145 3147 3149 3149 3150 3150 3151 3152 3152 3153 3154 3154 3155 3157 3158 3159 3161 3162 3163 3163 3163 3163 3164 3163 3164 3165 3165 3165 3166 3167 3168 3168 3170 3171 3172 3174 3176
3131 3130 3129 3127 3126 3125 3124 3124 3123 3122 3122 3121 3120 3119 3118 3118 3118 3118 3118 3118 3118 3118 3119 3119 3119 3119 3119 3119 3120 3119 3120 3120 3121 3122 3123 3123 3124 3126 3127 3129 3130 3132 3134 3136 3137 3138 3139 3140 3142 3143 3143 3145 3146 3147 3148 3148 3149 3150 3151 3152 3153 3153 3154 3155 3156 3157 3158 3160 3162 3163 3162 3162 3163 3163 3163 3164 3165 3165 3165 3165 3166 3167 3168 3169 3170 3171 3173 3175
3130 3129 3127 3126 3124 3123 3123 3122 3121 3120 3120 3119 3118 3117 3116 3116 3116 3116 3116 3116 3116 3116 3117 3118 3118 3118 3118 3119 3119 3119 3119 3120 3120 3121 3121 3122 3123 3124 3125 3127 3129 3131 3133 3134 3135 3136 3138 3140 3141 3141 3143 3145 3146 3146 3146 3147 3149 3150 3151 3152 3152 3153 3154 3155 3155 3157 3158 3159 3161 3162 3162 3162 3162 3162 3162 3163 3164 3165 3165 3165 3166 3166 3167 3168 3169 3171 3172 3175
3129 3127 3126 3124 3122 3121 3121 3120 3119 3118 3117 3117 3117 3115 3115 3115 3114 3114 3114 3114 3114 3115 3116 3116 3117 3117 3117 3118 3118 3118 3119 3119 3120 3120 3120 3121 3122 3123 3124 3125 3127 3129 3131 3133 3135 3136 3137 3139 3140 3141 3143 3144 3144 3145 3146 3146 3148 3149 3150 3151 3152 3152 3153 3154 3155 3156 3158 3159 3160 3161 3161 3161 3161 3161 3162 3162 3163 3164 3164 3165 3166 3166 3167 3168 3169 3170 3172 3174
3127 3126 3124 3122 3120 3119 3118 3118 3117 3116 3115 3115 3115 3114 3113 3113 3112 3112 3112 3112 3112 3113 3114 3114 3115 3116 3116 3116 3117 3117 3118 3118 3119 3119 3120 3120 3121 3122 3123 3124 3126 3128 3130 3132 3134 3135 3136 3138 3139 3141 3142 3143 3144 3145 3145 3145 3146 3148 3149 3150 3151 3152 3153 3154 3155 3156 3158 3158 3159 3159 3160 3161 3161 3161 3161 3161 3162 3163 3163 3164 3165 3166 3166 3167 3169 3170 3171 3172
3126 3124 3123 3121 3119 3117 3116 3116 3115 3114 3113 3113 3112 3112 3111 3111 3110 3110 3110 3110 3110 3110 3112 3113 3113 3115 3115 3115 3116 3116 3117 3117 3117 3118 3119 3120 3121 3122 3123 3124 3125 3126 3129 3130 3132 3134 3135 3136 3138 3140 3140 3141 3142 3143 3144 3144 3146 3148 3149 3150 3151 3151 3152 3153 3155 3156 3157 3158 3158 3158 3158 3160 3161 3160 3160 3161 3161 3162 3162 3163 3164 3165 3166 3166 3168 3169 3170 3171
3124 3123 3121 3119 3117 3115 3114 3113 3113 3112 3111 3111 3110 3110 3109 3109 3108 3108 3108 3108 3108 3109 3110 3111 3111 3113 3114 3114 3115 3115 3115 3115 3116 3118 3119 3119 3120 3121 3122 3123 3124 3125 3127 3129 3131 3132 3134 3135 3137 3137 3138 3140 3141 3142 3143 3144 3146 3147 3148 3149 3149 3150 3150 3151 3154 3156 3157 3157 3157 3157 3156 3158 3160 3159 3159 3159 3160 3161 3162 3163 3164 3164 3165 3165 3167 3168 3169 3170
3122 3121 3119 3118 3116 3114 3112 3112 3111 3110 3109 3109 3108 3108 3107 3107 3106 3106 3105 3106 3106 3107 3108 3109 3110 3112 3113 3113 3114 3114 3115 3115 3116 3117 3118 3118 3119 3120 3121 3123 3124 3125 3126 3128 3130 3131 3133 3134 3134 3135 3137 3139 3141 3142 3143 3144 3145 3146 3147 3148 3148 3148 3148 3150 3152 3154 3157 3157 3156 3156 3155 3156 3158 3157 3158 3159 3159 3160 3161 3161 3162 3163 3163 3164 3165 3166 3168 3170
3121 3119 3118 3116 3114 3112 3111 3110 3109 3108 3108 3107 3106 3106 3105 3104 3104 3104 3103 3104 3104 3105 3106 3107 3109 3111 3112 3113 3113 3114 3114 3115 3115 3117 3118 3118 3118 3119 3121 3122 3123 3124 3126 3128 3130 3131 3132 3132 3132 3135 3137 3139 3140 3142 3143 3143 3144 3145 3146 3146 3146 3147 3147 3149 3151 3153 3155 3155 3154 3155 3154 3153 3154 3155 3156 3157 3156 3157 3158 3158 3159 3160 3162 3163 3164 3166 3167 3169
3120 3118 3116 3115 3113 3111 3110 3109 3108 3107 3106 3105 3105 3105 3104 3103 3102 3102 3102 3102 3103 3104 3105 3106 3108 3110 3111 3112 3112 3113 3114 3114 3115 3116 3118 3118 3118 3119 3120 3121 3122 3124 3125 3127 3129 3130 3130 3130 3132 3135 3138 3139 3140 3141 3141 3142 3143 3144 3144 3145 3144 3145 3147 3149 3150 3152 3154 3153 3153 3154 3152 3150 3151 3153 3154 3154 3153 3154 3156 3157 3158 3159 3160 3161 3163 3165 3166 3168
3119 3117 3115 3114 3112 3110 3108 3108 3107 3106 3105 3104 3104 3104 3103 3102 3101 3101 3101 3101 3102 3103 3104 3105 3106 3108 3109 3110 3111 3112 3113 3114 3115 3116 3117 3118 3118 3119 3120 3121 3122 3123 3125 3126 3127 3128 3129 3129 3132 3136 3137 3138 3139 3140 3140 3141 3141 3142 3143 3143 3142 3143 3146 3147 3149 3151 3152 3152 3151 3151 3150 3148 3149 3151 3151 3152 3153 3155 3156 3157 3158 3159 3160 3161 3162 3164 3165 3166
3117 3116 3114 3112 3111 3109 3107 3106 3105 3104 3103 3103 3103 3103 3102 3101 3101 3101 3101 3101 3101 3102 3102 3103 3105 3107 3108 3109 3110 3111 3112 3113 3115 3116 3117 3117 3118 3119 3120 3121 3122 3123 3124 3125 3127 3128 3128 3130 3133 3135 3136 3136 3137 3138 3139 3140 3140 3140 3141 3141 3140 3142 3145 3146 3147 3149 3149 3149 3150 3149 3147 3145 3145 3147 3148 3150 3153 3154 3155 3157 3157 3158 3160 3162 3163 3164 3165 3166
3116 3115 3113 3111 3110 3108 3106 3105 3104 3103 3102 3102 3102 3101 3101 3100 3100 3101 3100 3100 3101 3102 3102 3103 3104 3106 3107 3108 3109 3111 3112 3113 3115 3116 3116 3117 3118 3119 3120 3121 3122 3123 3125 3126 3128 3128 3129 3131 3133 3134 3134 3135 3136 3137 3138 3139 3139 3139 3138 3138 3139 3141 3145 3146 3147 3148 3147 3148 3148 3147 3146 3144 3143 3144 3145 3148 3151 3151 3153 3154 3155 3157 3159 3160 3161 3162 3164 3165
3115 3113 3111 3110 3108 3106 3104 3103 3102 3101 3101 3101 3100 3100 3100 3100 3100 3100 3101 3101 3101 3102 3103 3104 3105 3106 3107 3108 3109 3111 3112 3113 3115 3116 3116 3117 3119 3119 3120 3121 3122 3123 3125 3126 3127 3128 3129 3130 3131 3132 3134 3134 3135 3135 3136 3138 3138 3137 3136 3137 3140 3142 3144 3145 3146 3148 3147 3146 3146 3147 3147 3145 3142 3142 3144 3147 3148 3149 3151 3152 3154 3156 3157 3158 3158 3160 3162 3163
3113 3111 3110 3108 3107 3105 3103 3102 3100 3100 3100 3100 3099 3099 3100 3100 3100 3100 3101 3101 3102 3103 3103 3104 3105 3106 3107 3108 3109 3111 3112 3113 3115 3116 3116 3117 3119 3119 3120 3121 3122 3123 3124 3125 3126 3127 3127 3129 3130 3131 3132 3133 3134 3134 3135 3137 3137 3135 3135 3138 3140 3142 3143 3144 3145 3146 3146 3145 3144 3144 3146 3144 3141 3140 3142 3145 3147 3149 3150 3151 3153 3154 3154 3156 3157 3158 3160 3161
3112 3110 3108 3106 3105 3103 3101 3100 3099 3098 3098 3098 3098 3099 3099 3099 3100 3100 3101 3102 3103 3103 3104 3105 3106 3106 3107 3109 3110 3111 3112 3113 3115 3116 3117 3118 3118 3119 3119 3120 3121 3123 3123 3124 3125 3126 3127 3128 3129 3130 3130 3131 3132 3133 3134 3136 3136 3133 3135 3138 3139 3141 3143 3143 3144 3144 3145 3145 3142 3141 3143 3143 3140 3139 3141 3144 3146 3147 3147 3148 3150 3151 3152 3154 3156 3158 3159 3160
3110 3109 3107 3105 3103 3101 3100 3098 3097 3097 3097 3097 3098 3099 3099 3099 3100 3101 3101 3103 3103 3103 3104 3106 3106 3107 3108 3109 3110 3111 3112 3113 3115 3116 3117 3117 3118 3118 3118 3119 3121 3122 3122 3123 3124 3125 3126 3127 3128 3129 3130 3130 3131 3131 3133 3134 3133 3133 3134 3136 3137 3139 3141 3141 3142 3142 3144 3143 3140 3140 3141 3141 3139 3138 3139 3142 3143 3143 3143 3145 3147 3149 3151 3153 3155 3157 3159 3160
3109 3107 3106 3104 3102 3100 3099 3097 3097 3096 3097 3097 3098 3098 3099 3100 3101 3101 3102 3103 3104 3104 3105 3106 3107 3108 3108 3109 3110 3112 3113 3114 3115 3116 3116 3116 3116 3117 3118 3118 3119 3120 3121 3122 3123 3124 3125 3126 3128 3129 3129 3129 3129 3130 3131 3131 3131 3132 3133 3133 3134 3137 3138 3139 3140 3141 3142 3141 3139 3139 3139 3139 3139 3137 3138 3139 3140 3140 3141 3143 3145 3148 3150 3151 3153 3155 3157 3158
3108 3106 3105 3103 3101 3100 3098 3097 3096 3097 3097 3097 3098 3099 3099 3100 3101 3101 3103 3103 3104 3105 3106 3106 3107 3108 3108 3109 3110 3111 3113 3114 3114 3115 3115 3115 3116 3116 3117 3117 3118 3119 3121 3121 3122 3123 3124 3126 3127 3127 3127 3127 3128 3128 3128 3129 3130 3130 3131 3132 3133 3134 3135 3137 3137 3138 3139 3138 3138 3138 3138 3139 3138 3137 3137 3138 3138 3139 3140 3141 3142 3144 3146 3148 3149 3151 3154 3156
3107 3105 3104 3102 3101 3099 3098 3097 3097 3097 3097 3098 3098 3099 3100 3100 3101 3102 3103 3104 3104 3105 3106 3106 3107 3108 3108 3109 3110 3111 3113 3113 3114 3114 3114 3115 3115 3116 3116 3117 3118 3119 3120 3120 3121 3122 3123 3125 3126 3126 3126 3126 3126 3126 3127 3128 3128 3128 3129 3130 3131 3132 3133 3135 3135 3136 3136 3136 3137 3137 3137 3138 3137 3137 3137 3137 3138 3138 3138 3139 3140 3142 3144 3145 3147 3149 3152 3154
3107 3105 3103 3102 3101 3099 3098 3097 3097 3097 3098 3098 3099 3100 3100 3100 3103 3104 3104 3104 3105 3105 3105 3106 3107 3107 3109 3109 3110 3111 3112 3113 3114 3113 3114 3114 3115 3115 3116 3117 3118 3118 3119 3120 3120 3121 3122 3123 3124 3124 3125 3125 3125 3125 3125 3126 3126 3127 3128 3128 3130 3131 3133 3135 3134 3134 3133 3133 3135 3136 3137 3137 3136 3137 3138 3138 3138 3137 3137 3137 3138 3141 3143 3145 3147 3149 3151 3152
3107 3105 3104 3102 3101 3099 3099 3098 3098 3099 3099 3099 3100 3100 3100 3101 3104 3105 3104 3105 3105 3105 3105 3106 3107 3107 3108 3109 3110 3111 3112 3113 3113 3113 3114 3114 3115 3116 3117 3117 3118 3118 3119 3119 3119 3120 3121 3122 3123 3123 3124 3125 3125 3124 3124 3124 3125 3126 3126 3127 3128 3128 3130 3132 3131 3130 3130 3131 3132 3134 3135 3135 3136 3138 3138 3138 3138 3138 3137 3137 3137 3139 3142 3144 3147 3149 3151 3152
3106 3105 3104 3102 3101 3100 3100 3100 3100 3100 3100 3100 3100 3100 3101 3104 3105 3105 3105 3105 3105 3105 3106 3106 3106 3107 3108 3108 3110 3111 3111 3112 3113 3113 3113 3114 3115 3116 3117 3118 3118 3119 3119 3119 3119 3120 3120 3122 3123 3123 3124 3125 3125 3124 3123 3123 3123 3124 3124 3125 3125 3126 3127 3127 3128 3128 3128 3129 3131 3133 3133 3134 3135 3135 3133 3133 3134 3135 3136 3137 3137 3138 3139 3142 3145 3147 3149 3150
3106 3105 3104 3103 3102 3102 3102 3102 3102 3101 3102 3102 3101 3101 3103 3106 3107 3106 3106 3106 3105 3105 3105 3106 3106 3107 3108 3108 3109 3110 3110 3110 3111 3112 3113 3114 3115 3116 3117 3118 3119 3119 3119 3120 3120 3120 3120 3121 3123 3123 3124 3125 3125 3124 3123 3122 3122 3123 3123 3123 3124 3125 3125 3125 3126 3126 3128 3129 3130 3131 3132 3132 3133 3132 3131 3131 3131 3130 3132 3134 3136 3137 3138 3140 3142 3143 3146 3147
3107 3106 3105 3104 3103 3103 3103 3104 3103 3103 3103 3102 3102 3104 3106 3107 3107 3106 3106 3106 3106 3106 3106 3106 3107 3107 3108 3109 3109 3109 3109 3110 3110 3111 3113 3115 3116 3118 3118 3119 3120 3120 3120 3120 3120 3120 3120 3121 3122 3123 3124 3124 3124 3124 3123 3122 3121 3122 3122 3122 3123 3124 3125 3125 3125 3125 3128 3130 3129 3129 3131 3131 3131 3131 3131 3130 3129 3127 3128 3130 3131 3134 3136 3137 3138 3140 3142 3144
3108 3107 3106 3105 3105 3105 3105 3105 3105 3104 3104 3103 3103 3106 3107 3107 3107 3107 3106 3106 3106 3106 3106 3106 3108 3109 3108 3108 3109 3110 3109 3110 3111 3111 3113 3115 3117 3119 3119 3119 3120 3120 3120 3120 3120 3120 3120 3120 3120 3121 3122 3123 3123 3123 3122 3122 3122 3121 3121 3122 3122 3122 3123 3124 3124 3125 3127 3130 3129 3128 3129 3132 3133 3133 3131 3130 3128 3126 3126 3126 3127 3129 3132 3134 3136 3138 3140 3142
3109 3108 3107 3107 3106 3105 3105 3105 3106 3106 3105 3104 3105 3107 3107 3107 3107 3107 3107 3107 3107 3106 3107 3108 3109 3110 3109 3109 3109 3110 3110 3111 3111 3112 3113 3116 3118 3119 3119 3119 3120 3120 3120 3120 3120 3120 3120 3120 3120 3120 3121 3122 3121 3122 3122 3122 3122 3122 3121 3121 3121 3122 3123 3123 3125 3126 3126 3128 3129 3127 3129 3134 3135 3134 3133 3132 3130 3127 3125 3125 3126 3127 3129 3130 3133 3136 3138 3139
3110 3109 3109 3108 3107 3107 3106 3106 3106 3106 3106 3106 3106 3108 3109 3109 3109 3108 3108 3108 3107 3107 3108 3109 3110 3110 3110 3110 3110 3110 3110 3111 3112 3112 3114 3116 3118 3119 3119 3119 3120 3120 3120 3120 3120 3120 3120 3120 3120 3120 3120 3121 3122 3123 3124 3123 3123 3122 3121 3122 3122 3122 3122 3124 3125 3126 3126 3128 3128 3128 3132 3136 3135 3134 3133 3132 3131 3128 3125 3125 3125 3126 3128 3128 3130 3133 3136 3138
3111 3110 3110 3110 3109 3108 3108 3107 3107 3107 3107 3108 3108 3109 3110 3110 3110 3110 3109 3108 3108 3108 3109 3110 3110 3111 3111 3111 3110 3110 3111 3112 3112 3113 3115 3117 3118 3119 3119 3119 3120 3120 3120 3120 3120 3120 3120 3120 3119 3119 3120 3122 3124 3125 3125 3125 3124 3124 3123 3124 3125 3124 3124 3125 3126 3127 3128 3129 3129 3130 3133 3134 3134 3132 3131 3129 3128 3126 3124 3123 3123 3124 3125 3126 3127 3130 3133 3135
3112 3111 3111 3111 3111 3110 3109 3109 3108 3108 3108 3109 3109 3110 3111 3111 3111 3111 3111 3110 3109 3110 3110 3110 3110 3111 3112 3112 3112 3111 3111 3113 3114 3114 3116 3118 3118 3119 3120 3120 3120 3120 3120 3120 3120 3120 3120 3120 3120 3121 3121 3122 3124 3124 3125 3125 3125 3125 3125 3126 3128 3127 3127 3128 3129 3129 3129 3129 3129 3130 3131 3131 3132 3131 3129 3127 3126 3124 3121 3120 3120 3121 3122 3123 3125 3126 3129 3132
3113 3112 3112 3112 3111 3111 3111 3110 3109 3109 3109 3110 3111 3111 3111 3111 3111 3111 3111 3111 3111 3111 3111 3111 3111 3112 3113 3113 3113 3112 3112 3114 3115 3116 3117 3118 3119 3119 3120 3119 3120 3120 3120 3120 3120 3120 3120 3120 3120 3122 3123 3123 3123 3123 3124 3125 3125 3125 3126 3127 3128 3129 3129 3129 3130 3130 3130 3129 3130 3130 3129 3129 3129 3128 3127 3127 3126 3123 3120 3117 3116 3117 3118 3119 3121 3123 3125 3128
3113 3112 3112 3112 3112 3112 3112 3112 3111 3110 3110 3111 3111 3111 3111 3112 3112 3111 3111 3111 3111 3112 3112 3112 3113 3113 3113 3114 3114 3113 3113 3114 3116 3117 3118 3119 3119 3119 3119 3119 3119 3119 3120 3120 3120 3120 3120 3121 3121 3122 3124 3125 3125 3125 3125 3124 3125 3126 3127 3127 3128 3129 3130 3129 3130 3130 3130 3130 3132 3132 3129 3126 3126 3126 3126 3126 3125 3122 3120 3117 3115 3114 3114 3115 3117 3120 3122 3124
3113 3112 3112 3112 3112 3112 3112 3112 3112 3111 3111 3111 3111 3111 3111 3112 3112 3112 3112 3111 3112 3113 3113 3114 3114 3114 3114 3114 3114 3114 3114 3114 3116 3117 3118 3119 3119 3120 3119 3118 3117 3118 3119 3119 3120 3120 3121 3121 3121 3122 3124 3125 3126 3128 3128 3126 3126 3126 3127 3128 3128 3129 3129 3129 3130 3130 3130 3130 3130 3132 3130 3126 3124 3125 3124 3124 3123 3121 3120 3118 3116 3114 3114 3114 3114 3116 3119 3121
3113 3113 3113 3112 3113 3113 3113 3113 3112 3112 3112 3111 3111 3112 3112 3112 3112 3112 3112 3112 3112 3113 3114 3114 3115 3115 3115 3114 3114 3114 3114 3115 3116 3117 3118 3119 3119 3119 3119 3118 3117 3117 3118 3119 3120 3121 3121 3122 3122 3123 3124 3125 3127 3129 3129 3128 3127 3127 3127 3127 3128 3129 3129 3130 3130 3131 3131 3129 3128 3130 3130 3126 3123 3123 3123 3122 3122 3121 3119 3119 3117 3116 3115 3115 3114 3114 3115 3117
3113 3113 3113 3113 3113 3113 3113 3112 3112 3112 3112 3112 3112 3112 3113 3113 3113 3113 3112 3112 3113 3113 3113 3114 3114 3115 3115 3114 3114 3114 3115 3115 3116 3116 3117 3118 3119 3119 3118 3118 3118 3117 3118 3119 3120 3121 3121 3121 3123 3123 3124 3125 3127 3128 3127 3127 3127 3126 3126 3126 3127 3128 3129 3130 3130 3131 3130 3129 3127 3127 3129 3128 3124 3123 3122 3121 3121 3120 3120 3119 3118 3117 3117 3118 3117 3114 3113 3114
3114 3114 3113 3113 3113 3113 3113 3112 3112 3112 3112 3112 3112 3112 3113 3113 3113 3113 3113 3113 3113 3113 3113 3113 3113 3114 3114 3115 3115 3115 3115 3115 3115 3116 3116 3117 3118 3118 3118 3118 3118 3118 3118 3118 3119 3120 3120 3121 3122 3123 3124 3125 3126 3126 3126 3126 3126 3126 3126 3126 3126 3127 3128 3129 3129 3130 3129 3129 3127 3126 3128 3129 3126 3124 3123 3122 3121 3120 3120 3120 3119 3118 3118 3119 3118 3116 3114 3113
3114 3114 3114 3113 3113 3113 3113 3113 3113 3112 3112 3112 3112 3112 3113 3113 3113 3113 3113 3113 3113 3113 3113 3113 3113 3113 3114 3114 3114 3114 3115 3115 3115 3115 3115 3116 3116 3117 3117 3117 3117 3117 3118 3118 3118 3119 3120 3121 3122 3122 3123 3124 3125 3125 3125 3125 3124 3125 3125 3126 3126 3127 3128 3128 3128 3128 3128 3128 3127 3126 3127 3128 3126 3124 3124 3123 3121 3120 3121 3120 3119 3119 3119 3119 3118 3117 3115 3114
3115 3114 3114 3114 3114 3114 3114 3114 3114 3113 3112 3112 3112 3113 3113 3113 3112 3112 3112 3113 3113 3113 3113 3113 3113 3113 3113 3113 3113 3114 3114 3114 3114 3114 3114 3114 3115 3116 3116 3116 3116 3116 3117 3116 3116 3117 3118 3119 3120 3120 3121 3123 3123 3123 3123 3123 3123 3123 3124 3124 3125 3126 3126 3126 3126 3126 3126 3126 3126 3126 3127 3126 3125 3123 3123 3123 3121 3121 3120 3119 3118 3119 3119 3120 3120 3118 3115 3114
3116 3115 3115 3115 3115 3115 3114 3114 3114 3113 3113 3113 3113 3113 3113 3113 3112 3112 3112 3112 3112 3112 3113 3113 3113 3112 3112 3112 3112 3112 3113 3113 3113 3113 3112 3113 3113 3114 3114 3115 3115 3115 3116 3116 3116 3117 3118 3119 3119 3119 3120 3120 3120 3120 3120 3121 3121 3122 3122 3122 3123 3124 3124 3124 3124 3124 3124 3125 3125 3126 3126 3125 3124 3122 3122 3121 3120 3119 3119 3119 3120 3120 3120 3120 3120 3118 3116 3115
3117 3117 3116 3116 3115 3115 3115 3114 3114 3113 3113 3113 3113 3113 3113 3113 3112 3112 3112 3112 3112 3112 3112 3112 3112 3112 3111 3111 3111 3112 3112 3111 3111 3111 3111 3111 3111 3111 3112 3113 3114 3114 3115 3115 3116 3116 3117 3118 3119 3120 3120 3119 3119 3120 3119 3119 3120 3121 3121 3121 3122 3122 3122 3122 3122 3123 3123 3123 3124 3125 3125 3125 3123 3122 3120 3120 3119 3118 3119 3120 3121 3121 3120 3120 3119 3118 3117 3115